Tracking 19254 objects as of 19-Oct-2018
HD Live streaming from Space Station
objects crossing your sky now

CP-7 (DAVE)

Track CP-7 (DAVE) now!
10-day predictions
CP-7 (DAVE) is classified as:


NORAD ID: 43615
Int'l Code: 2018-070C
Perigee: 452.5 km
Apogee: 475.5 km
Inclination: 93.0 °
Period: 93.7 minutes
Semi major axis: 6835 km
RCS: Unknown
Launch date: September 15, 2018
Source: United States (US)
Launch site: AIR FORCE WESTERN TEST RANGE (AFWTR)

Uplink (MHz):
Downlink (MHz): 437.150
Beacon (MHz): 437.150
Mode: 9600bps FSK CW
Call sign: WI2XNR-1
Status: Active

aabbcc
Your satellite tracking list
Your tracking list is empty




NASA's NSSDC Master Catalog

Two Line Element Set (TLE):
1 43615U 18070C   18292.19601562  .00002920  00000-0  82291-4 0  9996
2 43615  93.0269 263.4301 0016816 150.0935 210.1279 15.36361178  5169
Source of the keplerian elements: Caltech